STARLINK-1056 (44761 NORAD) Tracking and Keplerian Element Data

This shows tracking and keplerian element data for the satellite.

Feedback or suggestion? Click here.




ElementValue
Catalog44761
NameSTARLINK-1056
Epoch Orbit1036
Epoch Day17.91667824
Epoch Year2020
RAAN214.4407
Inclination53.0086
Eccentricity0.0001991
Argument of Perigee89.5313
Mean Anonmoly48.4998
Mean Motion15.05562927
Decay Rate0.0002475
L11 44761U 19074BA 20017.91667824 .00024750 00000-0 17126-2 0 9993
L22 44761 53.0086 214.4407 0001991 89.5313 48.4998 15.05562927 10361

Live tracking and technical data element details for STARLINK-1056 (NORAD 44761). STARLINK-1056 can be tracked NOW for your location showing map with azimuth and elevation plus other details from your city location.

Track the satellite on the map from your city or location and see movement details for azimuth, elevation, latitude, longitude, range, height, and movement on the map or in text.







IsCatalogInMostPopularTable: catalog: 44761, numindb: 12
Update: records affected: 1



GetName: 44761 STARLINK-1056

Hit Count: updated at: Sat, 18 Jan 2020 18:07:53 GMT